GW6556 Weather Reports


time (UTC)temp
C
wind
direction
speed
KPH
gust
KPH
rain 1hr
cm
rain 24hr
cm
rain mn
cm
humidity
%
barometer
mb
20260505152946 20 326 11.3 17.7 0.00 0.00 0.00 46 1016.7
20260505152443 20 331 6.4 12.9 0.00 0.00 0.00 49 1016.5
20260505151943 20 318 9.7 12.9 0.00 0.00 0.00 48 1016.6
20260505151439 20 308 9.7 9.7 0.00 0.00 0.00 53 1016.7
20260505150937 18 312 4.8 8.0 0.00 0.00 0.00 54 1017.0
20260505150434 19 1 0.0 4.8 0.00 0.00 0.00 54 1016.9
20260505140404 18 294 6.4 9.7 0.00 0.00 0.00 61 1016.5
20260505124817 9 345 0.0 3.2 0.00 0.00 0.00 98 1016.0
20260505124314 8 318 1.6 3.2 0.00 0.00 0.00 99 1016.2
20260505123810 8 305 1.6 3.2 0.00 0.00 0.00 99 1015.9
20260505123307 8 1 1.6 3.2 0.00 0.00 0.00 99 1015.9
20260505122803 7 353 0.0 1.6 0.00 0.00 0.00 99 1016.2
20260505122301 7 24 0.0 1.6 0.00 0.00 0.00 99 1015.9
20260505121756 7 326 0.0 1.6 0.00 0.00 0.00 99 1015.9
20260505121253 7 338 0.0 1.6 0.00 0.00 0.00 99 1015.9
20260505120750 6 317 1.6 3.2 0.00 0.00 0.00 99 1016.0
20260505120246 6 293 0.0 0.0 0.00 0.00 0.00 99 1016.2
20260505115745 6 53 0.0 1.6 0.00 0.00 0.00 98 1016.0
20260505115243 6 293 1.6 3.2 0.00 0.00 0.00 98 1016.0
20260505114740 5 305 1.6 3.2 0.00 0.00 0.00 98 1016.0
20260505114236 5 298 1.6 3.2 0.00 0.00 0.00 98 1015.9
20260505113733 5 304 0.0 3.2 0.00 0.00 0.00 98 1015.8
20260505113229 5 286 3.2 3.2 0.00 0.00 0.00 98 1015.9
20260505112725 5 64 1.6 1.6 0.00 0.00 0.00 98 1015.7
20260505112223 5 286 1.6 6.4 0.00 0.00 0.00 98 1015.5
20260505111723 5 240 0.0 1.6 0.00 0.00 0.00 98 1015.5
20260505111219 5 278 4.8 4.8 0.00 0.00 0.00 98 1015.5
20260505110715 5 307 3.2 3.2 0.00 0.00 0.00 98 1015.6
20260505110213 5 280 4.8 4.8 0.00 0.00 0.00 98 1015.4
20260505102148 5 274 3.2 3.2 0.00 0.00 0.00 98 1015.2
20260505101647 5 39 0.0 4.8 0.00 0.00 0.00 98 1015.2
20260505101143 5 279 3.2 3.2 0.00 0.00 0.00 98 1015.3
20260505100639 5 27 3.2 3.2 0.00 0.00 0.00 98 1015.3
20260505100136 5 285 3.2 3.2 0.00 0.00 0.00 98 1015.3
20260505095632 5 315 0.0 4.8 0.00 0.00 0.00 98 1015.4
20260505095129 5 305 3.2 3.2 0.00 0.00 0.00 98 1015.2
20260505094626 5 292 6.4 6.4 0.00 0.00 0.00 98 1015.3
20260505094122 5 65 0.0 3.2 0.00 0.00 0.00 98 1015.4
20260505093618 5 29 0.0 3.2 0.00 0.00 0.00 98 1015.4
20260505093115 5 308 0.0 4.8 0.00 0.00 0.00 98 1015.3
20260505092612 5 279 3.2 4.8 0.00 0.00 0.00 98 1015.2
20260505092112 5 253 3.2 4.8 0.00 0.00 0.00 98 1015.3
20260505091608 5 329 0.0 3.2 0.00 0.00 0.00 98 1015.4
20260505091106 5 297 3.2 3.2 0.00 0.00 0.00 97 1015.2
20260505090604 6 279 3.2 3.2 0.00 0.00 0.00 98 1015.4
20260505085559 6 306 1.6 1.6 0.00 0.00 0.00 97 1015.5
20260505085057 6 275 1.6 4.8 0.00 0.00 0.00 97 1015.6
20260505084555 6 302 0.0 3.2 0.00 0.00 0.00 97 1015.5
20260505084052 6 300 3.2 3.2 0.00 0.00 0.00 97 1015.6
20260505083549 6 261 1.6 3.2 0.00 0.00 0.00 97 1015.4
20260505083046 6 298 1.6 3.2 0.00 0.00 0.00 97 1015.5
20260505082542 6 273 1.6 3.2 0.00 0.00 0.00 97 1015.5
20260505082039 6 305 1.6 3.2 0.00 0.00 0.00 97 1015.4
20260505081535 6 289 3.2 3.2 0.00 0.00 0.00 97 1015.4
20260505081032 6 276 1.6 3.2 0.00 0.00 0.00 97 1015.4
20260505080528 6 309 1.6 3.2 0.00 0.00 0.00 97 1015.5
20260505080025 6 303 1.6 3.2 0.00 0.00 0.00 97 1015.4
20260505075521 6 274 1.6 3.2 0.00 0.00 0.00 97 1015.3
20260505075018 6 298 0.0 3.2 0.00 0.00 0.00 97 1015.4
20260505074515 6 315 3.2 3.2 0.00 0.00 0.00 97 1015.5
20260505074013 6 319 3.2 4.8 0.00 0.00 0.00 97 1015.5
20260505073510 6 247 3.2 3.2 0.00 0.00 0.00 97 1015.5
20260505073008 6 286 3.2 3.2 0.00 0.00 0.00 97 1015.7
20260505072503 6 298 3.2 3.2 0.00 0.00 0.00 97 1015.5
20260505071959 6 274 1.6 3.2 0.00 0.00 0.00 96 1015.5
20260505071455 6 299 1.6 3.2 0.00 0.00 0.00 96 1015.4
20260505070954 6 306 1.6 3.2 0.00 0.00 0.00 96 1015.6
20260505070450 6 292 3.2 4.8 0.00 0.00 0.00 96 1015.4
20260505065946 6 303 3.2 4.8 0.00 0.00 0.00 96 1015.3
20260505065443 6 280 3.2 3.2 0.00 0.00 0.00 96 1015.3
20260505064939 6 297 3.2 4.8 0.00 0.00 0.00 96 1015.5
20260505064436 6 282 3.2 3.2 0.00 0.00 0.00 96 1015.4
20260505063935 7 282 1.6 3.2 0.00 0.00 0.00 96 1015.3
20260505063431 7 284 3.2 4.8 0.00 0.00 0.00 96 1015.3
20260505062927 7 296 1.6 3.2 0.00 0.00 0.00 96 1015.1
20260505062425 7 282 0.0 3.2 0.00 0.00 0.00 96 1015.4
20260505061921 7 279 3.2 3.2 0.00 0.00 0.00 96 1015.6
20260505061420 7 324 1.6 3.2 0.00 0.00 0.00 96 1015.6
20260505060917 7 299 1.6 3.2 0.00 0.00 0.00 96 1015.6
20260505060414 7 293 4.8 4.8 0.00 0.00 0.00 96 1015.6
20260505055910 7 281 3.2 3.2 0.00 0.00 0.00 95 1015.7
20260505055406 7 305 1.6 3.2 0.00 0.00 0.00 95 1015.7
20260505054903 7 335 1.6 3.2 0.00 0.00 0.00 96 1015.7
20260505054400 7 315 0.0 3.2 0.00 0.00 0.00 95 1015.7
20260505053858 7 279 3.2 3.2 0.00 0.00 0.00 95 1015.6
20260505053355 7 298 3.2 3.2 0.00 0.00 0.00 95 1015.9
20260505052852 7 278 3.2 3.2 0.00 0.00 0.00 95 1015.8
20260505052349 7 296 1.6 3.2 0.00 0.00 0.00 95 1015.8
20260505051846 7 354 0.0 3.2 0.00 0.00 0.00 95 1015.9
20260505051343 7 307 3.2 3.2 0.00 0.00 0.00 94 1015.8
20260505050841 7 288 3.2 3.2 0.00 0.00 0.00 94 1015.7
20260505050340 7 305 1.6 3.2 0.00 0.00 0.00 94 1015.5
20260505041306 8 290 1.6 3.2 0.00 0.00 0.00 92 1015.4
20260505040804 8 292 3.2 3.2 0.00 0.00 0.00 92 1015.7
20260505040301 8 329 0.0 3.2 0.00 0.00 0.00 92 1015.6
20260505035758 8 313 0.0 3.2 0.00 0.00 0.00 92 1015.7
20260505035253 9 281 0.0 1.6 0.00 0.00 0.00 91 1015.8
20260505034751 9 326 0.0 3.2 0.00 0.00 0.00 91 1015.6
20260505034248 9 299 0.0 3.2 0.00 0.00 0.00 91 1015.6
20260505033744 9 17 0.0 3.2 0.00 0.00 0.00 91 1015.7
20260505033242 9 289 3.2 3.2 0.00 0.00 0.00 90 1015.7
20260505032740 9 312 0.0 3.2 0.00 0.00 0.00 90 1015.8
20260505032235 10 307 3.2 3.2 0.00 0.00 0.00 90 1015.9
20260505031733 10 269 0.0 3.2 0.00 0.00 0.00 90 1015.8
20260505031229 10 302 1.6 4.8 0.00 0.00 0.00 89 1015.7
20260505030726 10 296 3.2 3.2 0.00 0.00 0.00 89 1015.8
20260505030222 10 298 1.6 4.8 0.00 0.00 0.00 89 1015.9
20260505025718 10 309 3.2 3.2 0.00 0.00 0.00 89 1015.8
20260505025217 10 296 1.6 3.2 0.00 0.00 0.00 88 1015.7
20260505024714 10 286 0.0 3.2 0.00 0.00 0.00 88 1015.6
20260505024211 10 269 0.0 3.2 0.00 0.00 0.00 87 1015.7
20260505023709 10 308 3.2 3.2 0.00 0.00 0.00 87 1015.8
20260505023206 10 321 1.6 3.2 0.00 0.00 0.00 86 1015.7
20260505022703 10 326 0.0 3.2 0.00 0.00 0.00 86 1015.7
20260505022200 11 315 3.2 3.2 0.00 0.00 0.00 86 1015.7
20260505021656 11 290 3.2 3.2 0.00 0.00 0.00 85 1015.6
20260505021154 11 284 0.0 3.2 0.00 0.00 0.00 85 1015.7
20260505020649 11 295 3.2 3.2 0.00 0.00 0.00 84 1015.5
20260505020145 11 321 0.0 4.8 0.00 0.00 0.00 83 1015.5
20260505015643 11 314 3.2 4.8 0.00 0.00 0.00 83 1015.5
20260505015139 11 307 3.2 3.2 0.00 0.00 0.00 81 1015.3
20260505014636 11 295 0.0 3.2 0.00 0.00 0.00 80 1015.4
20260505014133 12 291 1.6 3.2 0.00 0.00 0.00 80 1015.4
20260505013631 12 289 3.2 3.2 0.00 0.00 0.00 79 1015.4
20260505013127 12 310 0.0 3.2 0.00 0.00 0.00 78 1015.1
20260505012626 12 306 3.2 3.2 0.00 0.00 0.00 77 1015.3
20260505012122 12 303 0.0 3.2 0.00 0.00 0.00 76 1015.3
20260505011618 12 300 3.2 3.2 0.00 0.00 0.00 75 1015.1
20260505011115 13 303 3.2 3.2 0.00 0.00 0.00 72 1015.2
20260505010610 13 297 3.2 3.2 0.00 0.00 0.00 72 1015.2
20260505010108 13 313 3.2 3.2 0.00 0.00 0.00 71 1015.1
20260505005604 13 296 1.6 3.2 0.00 0.00 0.00 70 1015.1
20260505005101 14 302 1.6 3.2 0.00 0.00 0.00 67 1015.0
20260505004558 15 296 3.2 3.2 0.00 0.00 0.00 65 1015.2
20260505004055 15 292 1.6 3.2 0.00 0.00 0.00 64 1015.1
20260505003552 15 298 3.2 3.2 0.00 0.00 0.00 65 1014.9
20260505003049 16 310 3.2 4.8 0.00 0.00 0.00 61 1015.0
20260505002549 16 299 3.2 3.2 0.00 0.00 0.00 59 1014.9
20260505002049 16 286 1.6 3.2 0.00 0.00 0.00 59 1014.9
20260505001546 17 293 3.2 3.2 0.00 0.00 0.00 59 1014.9
20260505001043 17 269 0.0 1.6 0.00 0.00 0.00 58 1014.7
20260505000540 17 217 0.0 3.2 0.00 0.00 0.00 63 1014.9
20260505000038 18 310 3.2 4.8 0.00 0.00 0.00 55 1014.9
20260504235534 18 53 1.6 1.6 0.00 0.00 0.00 55 1014.8
20260504235031 18 211 0.0 4.8 0.00 0.00 0.00 56 1014.9
20260504234528 20 300 4.8 4.8 0.00 0.00 0.00 52 1014.9
20260504234025 21 218 1.6 3.2 0.00 0.00 0.00 54 1014.9
20260504233520 21 251 9.7 14.5 0.00 0.00 0.00 40 1014.8
20260504233017 21 283 8.0 8.0 0.00 0.00 0.00 39 1014.9
20260504232514 22 280 3.2 8.0 0.00 0.00 0.00 41 1015.0
20260504232012 22 220 1.6 4.8 0.00 0.00 0.00 42 1014.8
20260504231508 22 282 3.2 12.9 0.00 0.00 0.00 44 1014.8
20260504231004 21 274 3.2 6.4 0.00 0.00 0.00 46 1014.7
20260504230501 21 194 0.0 9.7 0.00 0.00 0.00 43 1014.6
20260504230000 21 278 3.2 9.7 0.00 0.00 0.00 45 1014.6
20260504225456 22 311 4.8 9.7 0.00 0.00 0.00 43 1014.5
20260504224954 22 346 1.6 6.4 0.00 0.00 0.00 43 1014.7
20260504224450 21 307 1.6 3.2 0.00 0.00 0.00 43 1014.5
20260504223947 22 307 3.2 16.1 0.00 0.00 0.00 43 1014.6
20260504223443 22 297 3.2 8.0 0.00 0.00 0.00 41 1014.7
20260504222939 22 267 11.3 12.9 0.00 0.00 0.00 42 1014.7
20260504222437 22 339 3.2 4.8 0.00 0.00 0.00 41 1015.0
20260504221934 22 302 4.8 6.4 0.00 0.00 0.00 43 1014.8
20260504221431 22 299 4.8 8.0 0.00 0.00 0.00 42 1014.9
20260504220928 22 318 8.0 9.7 0.00 0.00 0.00 43 1014.7
20260504220425 22 318 9.7 9.7 0.00 0.00 0.00 44 1014.6
20260504215922 22 271 8.0 11.3 0.00 0.00 0.00 42 1014.8
20260504215418 22 279 6.4 9.7 0.00 0.00 0.00 43 1014.7
20260504214915 22 304 11.3 14.5 0.00 0.00 0.00 43 1014.6
20260504214412 22 310 9.7 9.7 0.00 0.00 0.00 42 1014.8
20260504213908 22 319 14.5 17.7 0.00 0.00 0.00 41 1014.6
20260504213404 22 275 8.0 14.5 0.00 0.00 0.00 40 1014.8
20260504212902 22 234 9.7 9.7 0.00 0.00 0.00 39 1014.8
20260504212357 22 319 8.0 17.7 0.00 0.00 0.00 39 1014.6
20260504211855 22 278 4.8 9.7 0.00 0.00 0.00 41 1014.7
20260504211351 22 299 1.6 9.7 0.00 0.00 0.00 38 1014.7
20260504210849 22 313 8.0 8.0 0.00 0.00 0.00 40 1014.9
20260504210346 22 303 6.4 12.9 0.00 0.00 0.00 42 1014.7
20260504205843 22 299 8.0 16.1 0.00 0.00 0.00 38 1014.8
20260504205341 22 284 11.3 12.9 0.00 0.00 0.00 42 1014.7
20260504204838 22 268 4.8 4.8 0.00 0.00 0.00 40 1014.7
20260504204337 22 261 4.8 9.7 0.00 0.00 0.00 39 1014.8
20260504203836 22 319 4.8 19.3 0.00 0.00 0.00 40 1014.9
20260504203332 22 288 14.5 14.5 0.00 0.00 0.00 42 1014.9
20260504202828 22 291 8.0 12.9 0.00 0.00 0.00 38 1014.8
20260504202326 22 262 12.9 14.5 0.00 0.00 0.00 37 1014.9
20260504201822 22 278 3.2 9.7 0.00 0.00 0.00 38 1014.8
20260504201319 22 326 8.0 12.9 0.00 0.00 0.00 36 1014.9
20260504200817 22 254 6.4 9.7 0.00 0.00 0.00 34 1015.1
20260504200313 22 304 9.7 16.1 0.00 0.00 0.00 36 1015.2
20260504195809 22 325 9.7 14.5 0.00 0.00 0.00 36 1015.4
20260504195305 22 262 8.0 16.1 0.00 0.00 0.00 39 1015.3
20260504194802 22 265 3.2 9.7 0.00 0.00 0.00 38 1015.3
20260504194259 22 290 9.7 19.3 0.00 0.00 0.00 37 1015.4
20260504193755 22 258 3.2 24.1 0.00 0.00 0.00 35 1015.5
20260504193252 22 253 8.0 9.7 0.00 0.00 0.00 35 1015.2
20260504192750 22 303 6.4 14.5 0.00 0.00 0.00 34 1015.4
20260504192248 22 295 4.8 8.0 0.00 0.00 0.00 39 1015.4
20260504191747 22 269 4.8 16.1 0.00 0.00 0.00 36 1015.5
20260504191243 22 260 6.4 19.3 0.00 0.00 0.00 31 1015.5
20260504190739 22 262 11.3 19.3 0.00 0.00 0.00 33 1015.5
20260504190235 22 261 11.3 22.5 0.00 0.00 0.00 36 1015.5
20260504185732 22 314 6.4 17.7 0.00 0.00 0.00 31 1015.7
20260504185229 22 293 9.7 9.7 0.00 0.00 0.00 36 1015.6
20260504184725 22 286 12.9 14.5 0.00 0.00 0.00 38 1015.7
20260504184221 22 304 4.8 9.7 0.00 0.00 0.00 37 1015.8
20260504183717 22 246 9.7 11.3 0.00 0.00 0.00 37 1015.9
20260504183214 22 242 9.7 11.3 0.00 0.00 0.00 38 1016.0
20260504182712 22 275 8.0 14.5 0.00 0.00 0.00 40 1015.9
20260504182209 22 276 3.2 8.0 0.00 0.00 0.00 36 1016.0
20260504181707 21 275 9.7 12.9 0.00 0.00 0.00 40 1016.2
20260504181204 21 248 4.8 9.7 0.00 0.00 0.00 41 1016.0
20260504180703 21 309 9.7 9.7 0.00 0.00 0.00 42 1016.2
20260504180201 21 320 11.3 12.9 0.00 0.00 0.00 45 1016.5
20260504175658 21 254 8.0 9.7 0.00 0.00 0.00 44 1016.5
20260504175155 21 318 8.0 20.9 0.00 0.00 0.00 43 1016.7
20260504174653 21 265 3.2 12.9 0.00 0.00 0.00 44 1016.7
20260504174149 21 261 12.9 17.7 0.00 0.00 0.00 44 1016.6
20260504173646 21 264 3.2 14.5 0.00 0.00 0.00 41 1016.5
20260504173144 21 243 9.7 17.7 0.00 0.00 0.00 44 1016.8
20260504172640 21 333 3.2 8.0 0.00 0.00 0.00 44 1016.9
20260504172137 21 276 9.7 12.9 0.00 0.00 0.00 43 1016.8
20260504171633 21 267 4.8 14.5 0.00 0.00 0.00 43 1016.8
20260504171131 21 317 6.4 14.5 0.00 0.00 0.00 43 1016.9
20260504170627 21 279 6.4 12.9 0.00 0.00 0.00 45 1016.9
20260504170125 21 259 8.0 9.7 0.00 0.00 0.00 43 1017.1